Regional Weather Roundup
Issued by NWS Sioux Falls, SD

Home | Current Version | Previous Version | Graphics & Text | Print | Product List | Glossary Off
Versions: 1 2 3 4 5 6 7 8 9 10 11 12 13 14 15 16 17 18 19 20 21 22 23 24 25 26 27 28 29 30 31 32 33 34 35 36 37 38 39 40 41 42 43 44 45 46 47 48 49 50

000
ASUS43 KFSD 220702
RWRFSD

WEATHER ROUNDUP FOR SE SOUTH DAKOTA/SW MINNESOTA/NW IOWA
NATIONAL WEATHER SERVICE SIOUX FALLS SD
200 AM CDT TUE AUG 22 2017

NOTE: "FAIR" INDICATES FEW OR NO CLOUDS BELOW 12,000 FEET WITH NO
SIGNIFICANT WEATHER AND OR OBSTRUCTIONS TO VISIBILITY.


SDZ038>040-050-052>070-220800-
SOUTHEAST SOUTH DAKOTA

CITY           SKY/WX    TMP DP  RH WIND       PRES   REMARKS
BROOKINGS      CLEAR     58  54  86 N10       30.05R
CHAMBERLAIN    CLEAR     62  55  75 NW5       30.13S
HURON          CLEAR     51  50  96 W7        30.09R
MADISON        FAIR      59  59 100 N12       30.06S
MITCHELL       CLEAR     59  53  80 N9        30.09R
SIOUX FALLS    CLEAR     62  59  90 N12       30.04R
WINNER         FAIR      58  52  80 NW5       30.16R
YANKTON        CLEAR     64  61  90 NW13      30.05R
$$

MNZ071-072-080-081-089-090-097-098-220800-
SOUTHWEST MINNESOTA

CITY           SKY/WX    TMP DP  RH WIND       PRES   REMARKS
FAIRMONT       CLEAR     63  61  93 NW8       29.97R
JACKSON        CLEAR     63  59  88 NW9       29.99R
LUVERNE        CLEAR     61  55  82 N7        30.03R
MARSHALL       CLEAR     62  57  83 NW14      30.01R
MONTEVIDEO     CLEAR     59  57  94 N10       29.99R
PIPESTONE      CLEAR     63  55  77 N9        30.04R
REDWOOD FALLS  CLEAR     63  57  81 NW13      29.96R
TRACY          CLEAR     63  59  88 NW12      30.01R
WINDOM         CLEAR     64  57  77 NW21G26   29.98R
WORTHINGTON    CLEAR     64  59  83 NW14      30.01R
$$

IAZ001>003-012>014-020>022-031-032-NEZ013-014-SDZ071-220800-
NORTHWEST IOWA

CITY           SKY/WX    TMP DP  RH WIND       PRES   REMARKS
CHEROKEE       CLEAR     61  61 100 CALM      30.01R
DENISON        CLOUDY    64  64 100 W5        30.02R
ESTHERVILLE    CLEAR     60  60 100 W6        29.98R
ORANGE CITY    CLEAR     63  63 100 NW7       30.01R
SHELDON        CLEAR     61  61 100 NW8       29.99R
SIOUX CITY     CLEAR     62  62 100 W5        30.02R FOG
SPENCER        CLEAR     59  58  96 SW3       30.00R
STORM LAKE     CLOUDY    61  61 100 NW9       30.01R FOG
$$

ABBREVIATIONS USED IN REMARKS
   TC - TEMPERATURE IN CELSIUS
  WCI - WIND CHILL INDEX
   HX - HEAT INDEX
  VSB - VISIBILITY





USA.gov is the U.S. government's official web portal to all federal, state and local government web resources and services.